Tracking 28125 objects as of 4-Oct-2023
HD Live streaming from Space Station
objects crossing your sky now

THORAD AGENA D DEB

Track THORAD AGENA D DEB now!
10-day predictions


NORAD ID: 4778
Int'l Code: 1970-025DY
Perigee: 1,035.1 km
Apogee: 1,086.9 km
Inclination: 100.1 °
Period: 106.3 minutes
Semi major axis: 7431 km
RCS: 0.0119 m2 (small)
Launch date: April 8, 1970
Source: United States (US)
Launch site: AIR FORCE WESTERN TEST RANGE (AFWTR)

Note: This is SATELLITE DEBRIS
Your satellite tracking list
Your tracking list is empty




NASA's NSSDC Master Catalog

Two Line Element Set (TLE):
1  4778U 70025DY  23276.95044192  .00000255  00000-0  43673-3 0  9992
2  4778 100.0927 310.1581 0034838 346.7483 132.2398 13.55020824638293
Source of the keplerian elements: AFSPC